Weather History for Eureka, NV

Change the Weather History Date:

Sunday, February 2, 2014

  Actual Average Record
Temperature  
Mean Temperature 11 °F 26 °F  
Max Temperature 25 °F 40 °F 60 °F (2000)
Min Temperature -4 °F 13 °F -19 °F (1983)
Degree Days  
Heating Degree Days 54 39  
Month to date heating degree days 105 78  
Since 1 July heating degree days 4069 4361  
Cooling Degree Days 0 0  
Month to date cooling degree days 0 0  
Year to date cooling degree days 0 0  
Moisture  
Dew Point 6 °F    
Average Humidity 71    
Maximum Humidity 87    
Minimum Humidity 55    
Precipitation  
Precipitation 0.00 in 0.03 in 0.21 in (2006)
Month to date precipitation 0.00 0.06  
Year to date precipitation 0.79 0.80  
Sea Level Pressure  
Sea Level Pressure 30.09 in    
Wind  
Wind Speed 5 mph (SSW)    
Max Wind Speed 12 mph    
Max Gust Speed 14 mph    
T = Trace of Precipitation, MM = Missing Value Source: NWS Daily Summary

Daily Weather History Graph

Daily Weather History Graph

Search for Another Location

Airport:

Trip Planner

Search our weather history database for the weather conditions in past years. The results will help you decide how hot, cold, wet, or windy it might be!

Date:

Astronomy

Feb. 02, 2014 Rise Set
Actual Time 6:50 AM PST 5:05 PM PST
Civil Twilight 6:22 AM PST 5:33 PM PST
Nautical Twilight 5:50 AM PST 6:05 PM PST
Astronomical Twilight 5:18 AM PST 6:37 PM PST
Moon 8:20 AM PST (2/2) 8:53 PM PST (2/2)
Length of Visible Light 11h 11m
Length of Day
10h 14m
Waxing Crescent, 12% of the Moon is Illuminated
Feb 2
Waxing Crescent
Feb 6
First Quarter
Feb 14
Full
Feb 22
Last Quarter
Mar 1
New

Hourly Weather History & Observations

Time (PST) Temp. Windchill Dew Point Humidity Pressure Visibility Wind Dir Wind Speed Gust Speed Precip Events Conditions
12:53 AM 3.9 °F -9.4 °F -0.9 °F 80% 30.15 in - South 8.1 mph - N/A   Unknown
1:53 AM 3.9 °F -10.4 °F -0.9 °F 80% 30.15 in - SSW 9.2 mph - N/A   Unknown
2:53 AM 1.0 °F -14.0 °F -2.0 °F 87% 30.16 in - SSW 9.2 mph - N/A   Unknown
3:53 AM 1.0 °F -11.7 °F -4.0 °F 79% 30.14 in - SW 6.9 mph - N/A   Unknown
4:53 AM 1.9 °F -13.8 °F -2.9 °F 80% 30.14 in - SSW 10.4 mph - N/A   Unknown
5:53 AM -0.9 °F -15.3 °F -5.1 °F 83% 30.16 in - SW 8.1 mph - N/A   Unknown
6:53 AM -2.0 °F -15.4 °F -7.1 °F 79% 30.19 in - SW 6.9 mph - N/A   Unknown
7:53 AM 3.0 °F -10.5 °F -0.0 °F 87% 30.19 in - SSW 8.1 mph - N/A   Unknown
8:53 AM 8.1 °F 1.4 °F 3.9 °F 83% 30.16 in - South 3.5 mph - N/A   Unknown
9:53 AM 12.0 °F - 9.0 °F 88% 30.17 in - Calm Calm - N/A   Unknown
10:53 AM 16.0 °F - 10.0 °F 77% 30.12 in - Calm Calm - N/A   Unknown
11:53 AM 19.0 °F 13.9 °F 10.9 °F 71% 30.05 in - South 3.5 mph - N/A   Unknown
12:53 PM 21.9 °F - 12.0 °F 66% 30.03 in - Calm Calm - N/A   Unknown
1:53 PM 24.1 °F 19.7 °F 10.9 °F 57% 30.01 in - ENE 3.5 mph - N/A   Unknown
2:53 PM 24.1 °F 19.7 °F 12.9 °F 62% 30.00 in - SSE 3.5 mph - N/A   Unknown
3:53 PM 25.0 °F - 15.1 °F 66% 30.00 in - Calm Calm - N/A   Unknown
4:53 PM 21.0 °F - 14.0 °F 74% 30.02 in - Calm Calm - N/A   Unknown
5:53 PM 12.9 °F 2.6 °F 9.0 °F 84% 30.08 in - SSW 6.9 mph - N/A   Unknown
6:53 PM 12.0 °F 5.9 °F 7.0 °F 80% 30.09 in - South 3.5 mph - N/A   Unknown
7:53 PM 15.1 °F 6.4 °F 10.0 °F 80% 30.04 in - South 5.8 mph - N/A   Unknown
8:53 PM 17.1 °F 10.0 °F 12.0 °F 81% 30.00 in - SSW 4.6 mph - N/A   Unknown
9:53 PM 16.0 °F 8.8 °F 10.9 °F 81% 30.01 in - SSW 4.6 mph - N/A   Unknown
10:53 PM 14.0 °F 3.9 °F 9.0 °F 80% 30.00 in - South 6.9 mph - N/A   Unknown
11:53 PM 12.0 °F 2.7 °F 8.1 °F 84% 29.99 in - SW 5.8 mph - N/A   Unknown